Flag for U.S.A. Weather past 2 weeks in Redmond, Washington, U.S.A.

Now
43 °F

Passing clouds.


Feels Like: 41 °F
Forecast: 42 / 61 °F
Wind: 3 mph from Southeast

Location: Seattle Boeing Field

Current Time: Apr 26, 2015 at 6:14:09 AM

Latest Report: Apr 26, 2015 at 4:53 AM


Visibility: 10 mi

Pressure: 30.14 "Hg

Humidity: 79%

Dew point: 37 °F

Location of RedmondLocation

Historic Weather in Redmond — Graph

°F

Redmond temperature yesterday

Maximum temperature yesterday: 57 °F (at 5:53 PM)
Minimum temperature yesterday: 46 °F (at 4:53 AM)
Average temperature yesterday: 51 °F

Past Weeks' High & Low Weather Summary

 TemperatureHumidityPressure
High74 °F (Apr 20, 4:53 PM)100% (Apr 13, 6:53 PM)30.56 "Hg (Apr 13, 6:53 PM)
Low39 °F (Apr 15, 5:53 AM)24% (Apr 22, 3:53 PM)29.77 "Hg (Apr 24, 3:53 AM)
Average53 °F62%30.11 "Hg
* Reported Apr 11 4:53 AM — Apr 26 4:53 AM, Redmond, Weather by CustomWeather, © 2015

Note: Actual official high and low records may vary slightly from our data, if they occured in-between our weather recording intervals... More about our weather records

Advertising

Redmond weather history for previous 24 hours

 ConditionsComfort  
Time TempWeatherWind HumidityBarometerVisibility
4:53 AM
Sun, Apr 26
43 °FPassing clouds.3 mph79%30.14 "Hg10 mi
3:53 AM44 °FClear.3 mph76%30.13 "Hg10 mi
2:53 AM44 °FClear.8 mph76%30.12 "Hg10 mi
1:53 AM44 °FClear.6 mph76%30.12 "Hg10 mi
12:53 AM46 °FClear.5 mph73%30.11 "Hg10 mi
11:53 PM
Sat, Apr 25
49 °FClear.No wind66%30.09 "Hg10 mi
10:53 PM49 °FClear.7 mph66%30.09 "Hg10 mi
9:53 PM51 °FPassing clouds.No wind63%30.08 "Hg10 mi
8:53 PM53 °FPartly sunny.No wind55%30.07 "Hg10 mi
7:53 PM54 °FPartly sunny.No wind51%30.05 "Hg10 mi
6:53 PM56 °FScattered clouds.3 mph46%30.03 "Hg10 mi
5:53 PM57 °FScattered clouds.5 mph46%30.03 "Hg10 mi
4:53 PM56 °FBroken clouds.9 mph53%30.02 "Hg10 mi
3:53 PM55 °FBroken clouds.6 mph51%30.02 "Hg10 mi
2:53 PM56 °FBroken clouds.7 mph49%30.00 "Hg10 mi
1:53 PM56 °FBroken clouds.6 mph46%29.99 "Hg10 mi
12:53 PM56 °FPartly sunny.No wind44%29.98 "Hg10 mi
11:53 AM54 °FMostly cloudy.6 mph55%29.98 "Hg10 mi
10:53 AM52 °FPartly sunny.3 mph66%29.98 "Hg10 mi
9:53 AM50 °FBroken clouds.5 mph61%29.98 "Hg10 mi
8:53 AM50 °FScattered clouds.7 mph71%29.97 "Hg10 mi
7:53 AM46 °FOvercast.8 mph77%29.96 "Hg10 mi
6:53 AM46 °FPassing clouds.3 mph79%29.94 "Hg10 mi
Weather by CustomWeather, © 2015

See weather overviewHow to use our weather pages